This is the latest recevied weather packets stored in our database for station/object W5CDN. If no packets are shown the sender has not sent any weather packets the latest 10 day(s).
| Time | Temp. | Humidity | Pressure | Rain* | Wind** | Luminosity | Snow |
|---|---|---|---|---|---|---|---|
| 1788185336 | 26.67° C | 77% | 1016.8 hPa | 0 mm | - | - | - |
| 1788185036 | 27.22° C | 78% | 1016.8 hPa | 0 mm | - | - | - |
| 1788184736 | 27.22° C | 78% | 1016.8 hPa | 0 mm | - | - | - |
| 1788184436 | 26.67° C | 79% | 1016.7 hPa | 0 mm | - | - | - |
| 1788184136 | 26.67° C | 79% | 1016.8 hPa | 0 mm | - | - | - |
| 1788183836 | 26.67° C | 78% | 1017 hPa | 0 mm | - | - | - |
| 1788183536 | 26.67° C | 78% | 1016.6 hPa | 0 mm | - | - | - |
| 1788183236 | 26.67° C | 78% | 1016.7 hPa | 0 mm | - | - | - |
| 1788182936 | 26.67° C | 78% | 1016.5 hPa | 0 mm | - | - | - |
| 1788182636 | 26.67° C | 79% | 1016.5 hPa | 0 mm | - | - | - |
| 1788182336 | 26.67° C | 79% | 1016.4 hPa | 0 mm | - | - | - |
| 1788182036 | 26.11° C | 80% | 1016.4 hPa | 0 mm | - | - | - |
| 1788181736 | 26.11° C | 81% | 1016.3 hPa | 0 mm | - | - | - |
| 1788181436 | 25.56° C | 81% | 1016.5 hPa | 0 mm | - | - | - |
| 1788181136 | 25.56° C | 81% | 1016.2 hPa | 0 mm | - | - | - |
| 1788180836 | 25.56° C | 81% | 1016.2 hPa | 0 mm | - | - | - |
| 1788180536 | 25.56° C | 82% | 1016.1 hPa | 0 mm | - | - | - |
| 1788180236 | 25.56° C | 82% | 1016.1 hPa | 0 mm | - | - | - |
| 1788179936 | 25.56° C | 81% | 1016.1 hPa | 0 mm | - | - | - |
| 1788179636 | 25.56° C | 81% | 1016 hPa | 0 mm | - | - | - |
| 1788179336 | 25° C | 82% | 1015.8 hPa | 0 mm | - | - | - |
| 1788179036 | 25° C | 83% | 1015.7 hPa | 0 mm | - | - | - |
| 1788178736 | 25° C | 82% | 1015.9 hPa | 0 mm | - | - | - |
| 1788178436 | 25.56° C | 81% | 1015.5 hPa | 0 mm | - | - | - |
| 1788178136 | 25.56° C | 81% | 1015.6 hPa | 0 mm | - | - | - |
* Rain latest hour (hover to see other rain measurements)
** Current wind speed in m/s (hover to see current wind gust speed)